Charlevoix, MI

10:13 PM EDT on July 25, 2016 (GMT -0400)
Charlevoix Municipal

Weather History for KCVX - August, 2013

Change the Weather History Date:

Thursday, August 29, 2013

  Actual Average Record
Temperature  
Mean Temperature 72 °F -  
Max Temperature 84 °F 84 °F 87 °F (2010)
Min Temperature 61 °F 59 °F 50 °F (2011)
Cooling Degree Days 8    
Growing Degree Days 22 (Base 50)    
Moisture  
Dew Point 67 °F    
Average Humidity 83    
Maximum Humidity 100    
Minimum Humidity 53    
Precipitation  
Precipitation 0.00 in - - ()
Sea Level Pressure  
Sea Level Pressure 30.07 in    
Wind  
Wind Speed 3 mph (West)    
Max Wind Speed 10 mph    
Max Gust Speed -    
Visibility 9 miles    
Events      
Averages and records for this station are not official NWS values.
T = Trace of Precipitation, MM = Missing Value Source: NWS Daily Summary

Daily Weather History Graph

Daily Weather History Graph

Search for Another Location

Airport or City:

Trip Planner

Search our weather history database for the weather conditions in past years. The results will help you decide how hot, cold, wet, or windy it might be!

Date:

Astronomy

Aug. 29, 2013 Rise Set
Actual Time 6:59 AM EDT 8:23 PM EDT
Civil Twilight 6:28 AM EDT 8:54 PM EDT
Nautical Twilight 5:51 AM EDT 9:31 PM EDT
Astronomical Twilight 5:11 AM EDT 10:10 PM EDT
Moon 12:42 AM EDT (8/29) 4:00 PM EDT (8/29)
Length of Visible Light 14h 25m
Length of Day
13h 24m
Last Quarter, 38% of the Moon is Illuminated
Aug 29
Last Quarter
Sep 5
New
Sep 12
First Quarter
Sep 19
Full
Sep 26
Last Quarter

Hourly Weather History & Observations

Time (EDT) Temp. Heat Index Dew Point Humidity Pressure Visibility Wind Dir Wind Speed Gust Speed Precip Events Conditions
12:15 AM 66.4 °F - 66.2 °F 99% 30.08 in 7.0 mi Calm Calm - N/A   Clear
12:34 AM 66.0 °F - 66.0 °F 100% 30.08 in 7.0 mi Calm Calm - N/A   Clear
12:55 AM 64.8 °F - 64.8 °F 100% 30.07 in 7.0 mi West 3.5 mph - N/A   Clear
1:15 AM 65.7 °F - 65.7 °F 100% 30.08 in 7.0 mi Calm Calm - N/A   Clear
1:34 AM 65.5 °F - 65.5 °F 100% 30.08 in 7.0 mi Calm Calm - N/A   Clear
1:55 AM 65.3 °F - 65.3 °F 100% 30.08 in 7.0 mi SE 3.5 mph - N/A   Clear
2:15 AM 65.5 °F - 65.5 °F 100% 30.08 in 7.0 mi SE 3.5 mph - N/A   Clear
2:34 AM 65.8 °F - 65.8 °F 100% 30.07 in 10.0 mi Calm Calm - N/A   Clear
2:55 AM 66.2 °F - 66.2 °F 100% 30.07 in 10.0 mi Calm Calm - N/A   Clear
3:15 AM 66.2 °F - 65.8 °F 99% 30.07 in 10.0 mi Calm Calm - N/A   Clear
3:34 AM 65.8 °F - 65.5 °F 99% 30.07 in 10.0 mi Calm Calm - N/A   Clear
3:55 AM 65.1 °F - 65.1 °F 100% 30.07 in 7.0 mi Calm Calm - N/A   Clear
4:15 AM 63.7 °F - 63.7 °F 100% 30.07 in 7.0 mi Calm Calm - N/A   Clear
4:34 AM 63.1 °F - 63.1 °F 100% 30.08 in 5.0 mi Calm Calm - N/A   Clear
4:55 AM 62.6 °F - 62.6 °F 100% 30.07 in 5.0 mi Calm Calm - N/A   Clear
5:15 AM 62.8 °F - 62.8 °F 100% 30.08 in 5.0 mi Calm Calm - N/A   Clear
5:34 AM 61.9 °F - 61.9 °F 100% 30.09 in 4.0 mi Calm Calm - N/A   Clear
5:55 AM 61.9 °F - 61.9 °F 100% 30.09 in 2.5 mi Calm Calm - N/A   Clear
6:14 AM 61.7 °F - 61.7 °F 100% 30.09 in 7.0 mi Calm Calm - N/A   Clear
6:35 AM 62.1 °F - 62.1 °F 100% 30.09 in 5.0 mi Calm Calm - N/A   Clear
6:55 AM 61.9 °F - 61.9 °F 100% 30.10 in 4.0 mi Calm Calm - N/A   Clear
7:14 AM 61.7 °F - 61.7 °F 100% 30.10 in 5.0 mi Calm Calm - N/A   Clear
7:35 AM 61.5 °F - 61.5 °F 100% 30.11 in 5.0 mi Calm Calm - N/A   Clear
7:55 AM 63.5 °F - 63.5 °F 100% 30.12 in 7.0 mi Calm Calm - N/A   Clear
8:14 AM 64.6 °F - 64.6 °F 100% 30.12 in 5.0 mi Calm Calm - N/A   Clear
8:35 AM 66.7 °F - 66.7 °F 100% 30.12 in 7.0 mi Calm Calm - N/A   Clear
8:55 AM 69.1 °F - 68.5 °F 98% 30.11 in 10.0 mi Calm Calm - N/A   Clear
9:14 AM 71.1 °F - 69.1 °F 93% 30.12 in 10.0 mi Calm Calm - N/A   Clear
9:35 AM 73.4 °F - 69.8 °F 88% 30.10 in 10.0 mi Calm Calm - N/A   Clear
9:55 AM 75.0 °F - 70.5 °F 86% 30.11 in 10.0 mi Calm Calm - N/A   Clear
10:15 AM 76.3 °F - 70.9 °F 83% 30.12 in 10.0 mi WNW 3.5 mph - N/A   Clear
10:35 AM 77.9 °F - 69.8 °F 76% 30.11 in 10.0 mi West 5.8 mph - N/A   Clear
10:54 AM 79.2 °F - 69.4 °F 72% 30.11 in 10.0 mi West 4.6 mph - N/A   Clear
11:15 AM 80.2 °F 83.1 °F 68.7 °F 68% 30.10 in 10.0 mi Calm Calm - N/A   Clear
11:35 AM 81.5 °F 84.8 °F 69.1 °F 66% 30.11 in 10.0 mi West 5.8 mph - N/A   Clear
11:54 AM 82.4 °F 85.6 °F 68.7 °F 63% 30.11 in 10.0 mi WNW 5.8 mph - N/A   Clear
12:15 PM 82.6 °F 85.5 °F 68.0 °F 61% 30.12 in 10.0 mi West 5.8 mph - N/A   Clear
12:35 PM 81.9 °F 84.6 °F 67.6 °F 62% 30.12 in 10.0 mi West 6.9 mph - N/A   Clear
12:54 PM 82.9 °F 85.6 °F 67.3 °F 59% 30.11 in 10.0 mi West 5.8 mph - N/A   Clear
1:15 PM 84.2 °F 86.6 °F 66.6 °F 55% 30.10 in 10.0 mi West 6.9 mph - N/A   Clear
1:35 PM 82.0 °F 84.9 °F 67.6 °F 62% 30.10 in 10.0 mi WNW 8.1 mph - N/A   Clear
1:54 PM 83.7 °F 86.5 °F 67.6 °F 58% 30.10 in 10.0 mi West 6.9 mph - N/A   Clear
2:15 PM 83.7 °F 86.2 °F 67.1 °F 57% 30.09 in 10.0 mi WNW 6.9 mph - N/A   Clear
2:35 PM 84.4 °F 87.1 °F 67.1 °F 56% 30.09 in 10.0 mi WNW 6.9 mph - N/A   Clear
2:54 PM 84.4 °F 86.6 °F 65.8 °F 54% 30.09 in 10.0 mi West 4.6 mph - N/A   Clear
3:15 PM 83.5 °F 86.2 °F 67.1 °F 58% 30.08 in 10.0 mi WNW 6.9 mph - N/A   Clear
3:34 PM 84.2 °F 86.8 °F 66.7 °F 56% 30.07 in 10.0 mi WNW 5.8 mph - N/A   Clear
3:55 PM 84.6 °F 87.1 °F 66.6 °F 55% 30.07 in 10.0 mi WNW 5.8 mph - N/A   Clear
4:15 PM 84.9 °F 87.1 °F 66.2 °F 53% 30.06 in 10.0 mi West 10.4 mph - N/A   Clear
4:34 PM 84.2 °F 86.3 °F 66.0 °F 54% 30.06 in 10.0 mi West 8.1 mph - N/A   Clear
4:55 PM 84.2 °F 86.3 °F 65.8 °F 54% 30.05 in 10.0 mi WNW 8.1 mph - N/A   Clear
5:14 PM 83.8 °F 86.0 °F 66.0 °F 55% 30.05 in 10.0 mi West 9.2 mph - N/A   Clear
5:34 PM 82.0 °F 84.9 °F 67.6 °F 62% 30.05 in 10.0 mi West 10.4 mph - N/A   Clear
5:55 PM 80.2 °F 83.0 °F 68.5 °F 67% 30.05 in 10.0 mi West 8.1 mph - N/A   Clear
6:14 PM 79.7 °F - 68.9 °F 69% 30.05 in 10.0 mi West 9.2 mph - N/A   Clear
6:35 PM 79.2 °F - 69.3 °F 72% 30.04 in 10.0 mi WSW 5.8 mph - N/A   Clear
6:55 PM 78.3 °F - 68.4 °F 71% 30.05 in 10.0 mi West 8.1 mph - N/A   Clear
7:14 PM 77.7 °F - 68.5 °F 73% 30.04 in 10.0 mi West 8.1 mph - N/A   Clear
7:35 PM 77.0 °F - 68.5 °F 75% 30.05 in 10.0 mi West 9.2 mph - N/A   Clear
7:55 PM 75.7 °F - 68.0 °F 77% 30.05 in 10.0 mi WSW 9.2 mph - N/A   Clear
8:14 PM 75.2 °F - 68.0 °F 78% 30.05 in 10.0 mi West 9.2 mph - N/A   Clear
8:35 PM 73.6 °F - 69.3 °F 86% 30.05 in 10.0 mi West 8.1 mph - N/A   Clear
8:54 PM 72.9 °F - 70.7 °F 93% 30.05 in 10.0 mi West 4.6 mph - N/A   Clear
9:15 PM 72.5 °F - 70.0 °F 92% 30.05 in 10.0 mi Calm Calm - N/A   Clear
9:34 PM 72.9 °F - 70.3 °F 92% 30.04 in 10.0 mi Calm Calm - N/A   Clear
9:55 PM 71.6 °F - 70.0 °F 95% 30.03 in 10.0 mi SE 4.6 mph - N/A   Clear
10:14 PM 71.6 °F - 70.3 °F 96% 30.02 in 10.0 mi SSE 4.6 mph - N/A   Clear
10:35 PM 71.8 °F - 70.2 °F 95% 30.00 in 10.0 mi ESE 5.8 mph - N/A   Clear
10:55 PM 72.0 °F - 69.3 °F 91% 30.00 in 10.0 mi SE 5.8 mph - N/A   Clear
11:14 PM 71.6 °F - 68.9 °F 91% 29.99 in 10.0 mi SSE 6.9 mph - N/A   Clear
11:35 PM 72.0 °F - 68.4 °F 88% 29.99 in 10.0 mi South 5.8 mph - N/A   Clear
11:55 PM 72.7 °F - 67.1 °F 83% 29.98 in 10.0 mi South 5.8 mph - N/A   Clear